THOR ABLESTAR DEB, 351

Orbit data source: Space-Track

THOR ABLESTAR DEB, 351 is space debris in LEO originally from a launch on Thu, 29 Jun 1961 UTC launched from the Air Force Eastern Test Range (AFETR). Debris objects in space refer to the collection of defunct objects orbiting the Earth. Examples of debris include non-operational satellites, rocket bodies, and fragments generated from explosions, collisions, or faulty payload assembly.

Loading next visibility...
Identifier
351, 1961-015DR
Orbit
LEO
Country
Flag of USUS
Related business
Manufacturer
Unknown
Mission
Spacecraft
Bus & Motor
Unknown
Mass
Unknown
Launch date (UTC)
1961-06-29 (64 years ago)
Launch vehicle
Unknown
Launch site
Air Force Eastern Test Range (AFETR)
Object type
Payload
Rocket body
Debris
Shape & HBR
Unknown
Radar Cross Section
Small (<0.1 m²)

Expand to show TLE details & history
Last TLE update: 8 hours ago

TLE from 8 hours ago
0 THOR ABLESTAR DEB
1 00351U 61015DR  25260.90379970  .00007432  00000-0  10059-2 0  9994
2 00351  66.7429 140.2298 0026959 190.3758 169.6813 14.79258471337358
Epoch: 2025-09-17T21:41Z
TLE epoch observation values (Epoch: 2025-09-17T21:41:28.294Z)
Latitude
0.00001°
Longitude
177.78885°
Altitude
652.42 km
Speed
7.522 km/s
True Right ascension
09h 20m 55s
True Declination
0° 00' 00"
Sunlit
Object was in daylight at epoch
Visualization orbit readout
Latitude
Unknown
Longitude
Unknown
Altitude
Unknown
Speed
Unknown
Apparent Right ascension
Unknown
Apparent Declination
Unknown
Sunlit
N/A
Visualization observer readout
Local Sidereal Time
22:38:18
Azimuth
Unknown
Elevation
Unknown
Doppler factor
Unknown
Orbital elements
Apogee altitude
648.892 km
Perigee altitude
611.105 km
Semi-major axis
7,008.135 km
Eccentricity
0.0027
Inclination
66.7429°
RAAN
140.2298°
Arg. of periapsis
190.3758°
True anomaly
169.73645°
Mean anomaly
169.6813°
Eccentric anomaly
169.70889°
Mean motion
3.69947 °/min
Orbital period
97.31 mins
BSTAR
0.0010059
Loading maneuver chart data...
Computing Atmospheric mass density...

Documentation

Showing up to 5 results
|